Location: Berville
(49.1893°N, 2.0748°E)
Time: 06:40:18
(UTC+00:00)

Cosmos 2184 Rocket - Pass Details

Date: 08 February 2023
Orbit: 958 x 1003 km, 82.9° (Epoch: 21 March)

Event Time Altitude Azimuth Distance (km) Brightness Sun altitude
Rises 20:14:53 0° 348° (NNW) 3,703 7.4 -32.1°
Reaches altitude 10° 20:17:26 10° 345° (NNW) 2,744 6.7 -32.5°
Enters shadow 20:23:27 63° 275° (W) 1,081 4.3 -33.4°
